GOKTURK 2

Last updated on Wed May 14 2025 00:02:27 GMT+0000 (Coordinated Universal Time)

1 39030U 12073A 25133.58501015 .00000558 00000+0 90095-4 0 9991 2 39030 97.7132 345.4909 0001449 113.3766 246.7596 14.74971208665598
UTC large
Height (km)
Speed (km/s)
/
Latitude / Longitude
Inclination (degrees)
Orbital Period (minutes)
Azimuth
Elevation
Range (km)
Doppler Factor

Next 0 passes for location: London (51.5072 / 0.1276)

Sorry there are no passes over London.